TimeCDT,TemperatureF,Dew PointF,Humidity,Sea Level PressureIn,VisibilityMPH,Wind Direction,Wind SpeedMPH,Gust SpeedMPH,PrecipitationIn,Events,Conditions,WindDirDegrees,DateUTC
12:12 AM,33.8,33.8,100,29.65,3.0,WNW,4.6,-,N/A,,Overcast,300,2013-10-21 05:12:00
12:21 AM,33.8,33.8,100,29.66,2.5,WNW,4.6,-,N/A,,Overcast,290,2013-10-21 05:21:00
12:46 AM,33.8,33.8,100,29.67,3.0,West,6.9,-,N/A,,Overcast,280,2013-10-21 05:46:00
12:53 AM,33.1,33.1,100,29.71,4.0,West,8.1,-,N/A,,Overcast,280,2013-10-21 05:53:00
1:53 AM,34.0,32.0,92,29.73,10.0,WNW,9.2,-,0.01,,Overcast,290,2013-10-21 06:53:00
2:53 AM,33.1,32.0,96,29.75,9.0,West,9.2,-,N/A,,Overcast,280,2013-10-21 07:53:00
3:02 AM,33.8,32.0,93,29.71,5.0,West,9.2,-,0.00,Snow,Light Snow,280,2013-10-21 08:02:00
3:53 AM,33.1,32.0,96,29.77,10.0,West,11.5,19.6,0.00,,Overcast,280,2013-10-21 08:53:00
4:53 AM,33.1,30.9,92,29.78,10.0,WNW,10.4,18.4,N/A,,Overcast,290,2013-10-21 09:53:00
5:53 AM,33.1,30.9,92,29.80,4.0,West,13.8,19.6,0.01,Snow,Light Snow,280,2013-10-21 10:53:00
6:09 AM,33.8,30.2,87,29.75,9.0,WNW,9.2,23.0,0.00,,Overcast,290,2013-10-21 11:09:00
6:53 AM,32.0,28.9,88,29.81,10.0,WNW,10.4,17.3,0.00,,Overcast,290,2013-10-21 11:53:00
7:15 AM,32.0,30.2,93,29.76,1.8,WNW,9.2,-,0.00,Snow,Light Snow,290,2013-10-21 12:15:00
7:23 AM,32.0,30.2,93,29.76,3.0,WNW,10.4,-,0.00,Snow,Light Snow,290,2013-10-21 12:23:00
7:53 AM,32.0,30.0,92,29.82,2.5,West,13.8,18.4,0.00,Snow,Light Snow,280,2013-10-21 12:53:00
8:02 AM,30.2,28.4,93,29.77,0.8,West,11.5,20.7,0.41,Snow,Light Snow,280,2013-10-21 13:02:00
8:15 AM,30.2,28.4,93,29.77,3.0,WNW,15.0,21.9,0.42,Snow,Light Snow,290,2013-10-21 13:15:00
8:32 AM,30.2,26.6,86,29.78,10.0,WNW,13.8,-,0.42,,Mostly Cloudy,290,2013-10-21 13:32:00
8:42 AM,30.2,26.6,86,29.78,10.0,WNW,8.1,-,0.42,,Mostly Cloudy,290,2013-10-21 13:42:00
8:53 AM,30.9,25.0,79,29.83,10.0,WNW,11.5,19.6,0.42,,Mostly Cloudy,290,2013-10-21 13:53:00
9:53 AM,30.9,24.1,76,29.84,10.0,WNW,13.8,21.9,N/A,,Overcast,290,2013-10-21 14:53:00
10:53 AM,30.9,21.0,67,29.85,10.0,West,11.5,20.7,N/A,,Overcast,270,2013-10-21 15:53:00
11:53 AM,30.9,21.0,67,29.85,10.0,WNW,12.7,23.0,N/A,,Overcast,290,2013-10-21 16:53:00
12:17 PM,30.2,23.0,75,29.79,1.8,West,16.1,24.2,0.00,Snow,Light Snow,270,2013-10-21 17:17:00
12:28 PM,30.2,23.0,75,29.79,3.0,West,15.0,23.0,0.00,Snow,Light Snow,270,2013-10-21 17:28:00
12:53 PM,30.9,23.0,72,29.84,5.0,West,16.1,23.0,0.00,Snow,Light Snow,280,2013-10-21 17:53:00
1:53 PM,30.9,21.0,67,29.83,10.0,West,13.8,21.9,0.00,,Overcast,260,2013-10-21 18:53:00
2:53 PM,30.9,21.0,67,29.83,10.0,West,16.1,25.3,N/A,,Overcast,270,2013-10-21 19:53:00
3:53 PM,32.0,21.0,64,29.82,10.0,West,13.8,21.9,N/A,,Overcast,260,2013-10-21 20:53:00
4:53 PM,30.9,21.0,67,29.83,10.0,West,17.3,25.3,0.00,,Overcast,260,2013-10-21 21:53:00
5:34 PM,28.4,23.0,80,29.78,1.8,West,17.3,24.2,0.00,Snow,Light Snow,270,2013-10-21 22:34:00
5:42 PM,30.2,23.0,75,29.78,3.0,West,13.8,23.0,0.00,Snow,Light Snow,260,2013-10-21 22:42:00
5:53 PM,30.0,23.0,75,29.84,2.5,West,11.5,21.9,0.00,Snow,Light Snow,280,2013-10-21 22:53:00
6:00 PM,28.4,24.8,86,29.79,0.8,WNW,13.8,24.2,0.00,Snow,Light Snow,290,2013-10-21 23:00:00
6:07 PM,26.6,24.8,93,29.79,0.2,West,13.8,24.2,0.01,Fog-Snow,Heavy Snow,260,2013-10-21 23:07:00
6:14 PM,26.6,24.8,93,29.79,0.8,West,11.5,21.9,0.01,Snow,Light Snow,260,2013-10-21 23:14:00
6:18 PM,26.6,24.8,93,29.79,2.5,West,10.4,-,0.01,Snow,Light Snow,260,2013-10-21 23:18:00
6:25 PM,28.4,24.8,86,29.79,9.0,WSW,8.1,-,0.01,,Mostly Cloudy,250,2013-10-21 23:25:00
6:50 PM,28.4,24.8,86,29.79,10.0,West,11.5,-,0.01,,Overcast,260,2013-10-21 23:50:00
6:53 PM,28.9,25.0,85,29.84,10.0,West,10.4,-,0.01,,Overcast,260,2013-10-21 23:53:00
7:53 PM,28.9,24.1,82,29.83,10.0,West,12.7,-,0.00,,Overcast,260,2013-10-22 00:53:00
8:12 PM,28.4,24.8,86,29.77,10.0,WSW,10.4,-,N/A,,Overcast,250,2013-10-22 01:12:00
8:53 PM,28.9,24.1,82,29.82,8.0,WSW,11.5,-,0.00,Snow,Light Snow,250,2013-10-22 01:53:00
9:15 PM,28.4,24.8,86,29.76,9.0,WSW,15.0,23.0,0.00,,Overcast,250,2013-10-22 02:15:00
9:53 PM,30.0,25.0,82,29.81,7.0,West,18.4,24.2,0.00,Snow,Light Snow,260,2013-10-22 02:53:00
10:53 PM,30.9,27.0,85,29.80,10.0,West,16.1,26.5,0.00,,Overcast,270,2013-10-22 03:53:00
11:53 PM,30.9,27.0,85,29.81,10.0,West,16.1,26.5,N/A,,Overcast,270,2013-10-22 04:53:00